Location: Ash Swamp
(41.5170°N, 74.6157°W)
Time: 16:38:19
(UTC+00:00)

CZ-2D R/B - Pass Details

Date: 14 July 2020
Orbit: 792 x 845 km, 98.7° (Epoch: 05 August)

Event Time Altitude Azimuth Distance (km) Brightness Sun altitude
Rises 05:44:51 0° 24° (NNE) 3,352 6.5 -26.2°
Reaches altitude 10° 05:47:30 10° 36° (NE) 2,424 5.4 -26.1°
Maximum altitude 05:52:09 29° 96° (E) 1,465 3.4 -25.9°
Enters shadow 05:53:05 28° 114° (ESE) 1,517 3.4 -25.9°
